[[{"header":{"parameterUnit":"m.s-1","parameterCategory":1,"la1":30.2991,"la2":30.254,"lo1":-89.0895,"lo2":-89.0444,"dy":0.0017,"dx":0.0017,"nx":28,"ny":28,"refTime":"2024-04-25T09:00:00:Z","depth":0,"parameterNumber":2,"parameterNumberName":"U-component_of_WINDS"},"data":[0,0,0,0,0,0,0,0,0,0,0,0,0,0,0,0,0,0,0,0,0,0,0,0,0,0,0,0,0,0,0,0,0,0,0,0,0,0,0,0,0,0,0,0,0,0,0,0,0,0,0,0,0,0,0,0,0,0,-2.5258,-2.526,0,-2.5393,-2.5394,-2.5396,-2.543,-2.5429,-2.5428,-2.5428,-2.5565,-2.5569,-2.5574,0,0,0,0,0,0,0,0,0,0,0,0,0,-2.5033,-2.5037,-2.5258,-2.526,-2.5262,-2.5392,-2.5394,-2.5396,-2.543,-2.5429,-2.5428,-2.5427,-2.5563,-2.5569,-2.5574,0,0,0,0,0,0,0,0,0,0,0,0,0,-2.5145,-2.5038,-2.5258,-2.5294,-2.5299,-2.5392,-2.5394,-2.5396,-2.543,-2.5429,-2.5428,-2.5427,-2.5562,-2.5568,-2.5575,-2.5641,0,0,-2.5595,-2.5598,0,0,0,0,0,0,0,0,-2.5139,-2.5153,-2.5287,-2.5292,-2.5297,-2.5393,-2.5365,-2.5478,-2.5431,-2.5381,-2.5428,-2.5426,-2.5509,-2.552,-2.5548,-2.5647,-2.5653,-2.5596,-2.56,-2.5603,-2.5604,0,0,0,0,0,0,0,-2.5131,-2.5148,-2.5311,-2.5289,-2.5296,-2.5305,-2.5319,-2.5387,-2.545,-2.5385,-2.5388,-2.5403,-2.5511,-2.5541,-2.5551,-2.5655,-2.5595,-2.5601,-2.5605,-2.5608,-2.5817,-2.5818,0,0,0,0,0,0,-2.5117,-2.5141,-2.5307,-2.5315,-2.5213,-2.531,-2.5326,-2.5364,-2.5449,-2.5461,-2.5404,-2.5404,-2.553,-2.5543,-2.5556,-2.5639,-2.5602,-2.5609,-2.5613,-2.5815,-2.5817,-2.5819,0,0,0,0,0,0,-2.5112,-2.5131,-2.5302,-2.5229,-2.5252,-2.5315,-2.5357,-2.5367,-2.5397,-2.5464,-2.5475,-2.5423,-2.553,-2.5547,-2.562,-2.5644,-2.5612,-2.5618,-2.5813,-2.5816,-2.5818,-2.5806,0,0,0,0,0,0,-2.5105,-2.5129,-2.5155,-2.5229,-2.5255,-2.5363,-2.5359,-2.5371,-2.5408,-2.541,-2.5485,-2.5496,-2.553,-2.561,-2.5626,-2.5653,-2.5623,-2.5811,-2.5814,-2.5817,-2.5804,-2.5807,-2.581,0,0,0,0,0,-2.5097,-2.5146,-2.5156,-2.5176,-2.5288,-2.5364,-2.5379,-2.5418,-2.541,-2.5436,-2.548,-2.5493,-2.5639,-2.5617,-2.5636,-2.5665,-2.581,-2.5813,-2.5817,-2.5803,-2.5807,-2.581,0,0,0,0,0,0,-2.5072,-2.5156,-2.5168,-2.5243,-2.5296,-2.537,-2.5404,-2.542,-2.5477,-2.5476,-2.5522,-2.5538,-2.5608,-2.5644,-2.5618,-2.5734,-2.5725,-2.5732,-2.5708,-2.5712,-2.5715,-2.5704,-2.5628,0,0,0,0,0,-2.5076,-2.513,-2.5201,-2.526,-2.5286,-2.534,-2.5375,-2.54,-2.5457,-2.548,-2.5528,-2.5583,-2.5641,-2.5679,-2.5736,-2.581,-2.5827,-2.584,-2.5843,-2.5845,-2.585,-2.5892,-2.5899,-2.583,-2.583,-2.583,0,0,-2.5083,-2.5136,-2.5167,-2.5256,-2.53,-2.5355,-2.5359,-2.5417,-2.5459,-2.5489,-2.556,-2.5598,-2.5662,-2.5736,-2.5771,-2.5768,-2.5873,-2.5849,-2.585,-2.5855,-2.5896,-2.5903,-2.5909,-2.5832,-2.5832,-2.5832,0,0,-2.5124,-2.5169,-2.5224,-2.5268,-2.5335,-2.5371,-2.5384,-2.5456,-2.5482,-2.5555,-2.5578,-2.5629,-2.5728,-2.5773,-2.5809,-2.5869,-2.5883,-2.5886,-2.5901,-2.5942,-2.5947,-2.5952,-2.5973,-2.598,-2.5892,-2.5892,-2.5892,0,-2.5125,-2.5209,-2.5249,-2.5307,-2.5345,-2.5375,-2.5431,-2.5472,-2.5554,-2.558,-2.5576,-2.5702,-2.5747,-2.5832,-2.5847,-2.5875,-2.5891,-2.5877,-2.5943,-2.5948,-2.5954,-2.5974,-2.5982,-2.5892,-2.5892,-2.5892,-2.5892,0,-2.5206,-2.5264,-2.53,-2.5378,-2.5421,-2.5477,-2.5527,-2.5565,-2.5587,-2.5624,-2.5698,-2.5754,-2.5823,-2.5846,-2.5867,-2.5934,-2.593,-2.5934,-2.5925,-2.5959,-2.5979,-2.5988,-2.5891,-2.5891,-2.5892,-2.5892,0,0,-2.5234,-2.5335,-2.5348,-2.5384,-2.5461,-2.5507,-2.5564,-2.5632,-2.5664,-2.5721,-2.577,-2.5854,-2.5858,-2.5899,-2.5927,-2.5962,-2.6006,-2.5962,-2.5964,-2.5968,-2.6082,-2.6078,-2.6086,-2.6016,-2.6018,-2.6019,-2.6076,0,-2.5285,-2.5388,-2.5427,-2.5512,-2.5567,-2.5596,-2.5647,-2.5699,-2.5736,-2.5787,-2.5827,-2.5886,-2.5887,-2.5912,-2.5949,-2.5992,-2.6029,-2.5989,-2.6063,-2.6065,-2.6045,-2.6097,-2.6093,-2.6144,-2.6085,-2.6086,-2.6087,0,-2.5357,-2.5414,-2.5504,-2.5575,-2.5599,-2.5643,-2.5709,-2.5758,-2.5819,-2.5843,-2.5888,-2.5914,-2.5976,-2.5964,-2.605,-2.6022,-2.6055,-2.6081,-2.6084,-2.6092,-2.6077,-2.6105,-2.6161,-2.6168,-2.61,-2.6099,-2.6098,0,-2.5368,-2.5468,-2.5535,-2.5565,-2.5649,-2.5679,-2.5716,-2.5775,-2.5814,-2.5871,-2.5897,-2.5961,-2.5996,-2.6045,-2.6087,-2.6075,-2.6169,-2.6161,-2.6191,-2.6189,-2.6208,-2.6206,-2.6269,-2.623,-2.623,-2.623,-2.623,0,-2.542,-2.5474,-2.5541,-2.5582,-2.5643,-2.5688,-2.5748,-2.5786,-2.5839,-2.5888,-2.5919,-2.5964,-2.6017,-2.607,-2.6104,-2.617,-2.6186,-2.6207,-2.6215,-2.6204,-2.6201,-2.6225,-2.6222,-2.6232,-2.6232,-2.6231,-2.6231,0,-2.5443,-2.5489,-2.5564,-2.5638,-2.5657,-2.57,-2.5763,-2.5804,-2.5842,-2.5904,-2.5921,-2.598,-2.6044,-2.6091,-2.6174,-2.6197,-2.6267,-2.6276,-2.6246,-2.625,-2.6277,-2.6274,-2.6357,-2.637,-2.6323,-2.6323,-2.6323,0,-2.5472,-2.5514,-2.5592,-2.5628,-2.5664,-2.572,-2.5759,-2.5805,-2.5845,-2.5918,-2.595,-2.6016,-2.6071,-2.6172,-2.6223,-2.6286,-2.6296,-2.6321,-2.6306,-2.6293,-2.6296,-2.6293,-2.6297,-2.6323,-2.6323,-2.6323,-2.6323,0,-2.552,-2.5541,-2.5596,-2.566,-2.5707,-2.5759,-2.5812,-2.584,-2.5895,-2.5939,-2.6004,-2.6047,-2.6131,-2.6196,-2.6265,-2.6303,-2.6322,-2.6328,-2.6338,-2.6327,-2.6308,-2.6318,-2.6251,-2.6326,-2.6325,-2.6325,-2.6325,-2.6325,-2.5547,-2.5586,-2.5647,-2.5708,-2.5753,-2.5802,-2.5844,-2.5887,-2.5943,-2.6015,-2.6039,-2.6106,-2.6167,-2.6261,-2.63,-2.6353,-2.6353,-2.6368,-2.6371,-2.6374,-2.6373,-2.63,-2.6366,-2.6366,-2.6366,-2.6366,-2.6366,0,-2.5596,-2.5636,-2.5692,-2.5765,-2.5814,-2.5828,-2.5888,-2.5927,-2.5986,-2.6041,-2.6094,-2.617,-2.6233,-2.6289,-2.6355,-2.6388,-2.6398,-2.6403,-2.6401,-2.6409,-2.637,-2.6354,-2.6394,-2.6394,-2.6394,-2.6393,-2.6393,-2.6393,-2.5627,-2.5693,-2.5722,-2.5811,-2.5852,-2.5918,-2.5951,-2.5997,-2.604,-2.6123,-2.6176,-2.6212,-2.6267,-2.6338,-2.6397,-2.6412,-2.6434,-2.6437,-2.6454,-2.6416,-2.6412,-2.6409,-2.6395,-2.6442,-2.6442,-2.6489,-2.649,-2.649]},{"header":{"parameterUnit":"m.s-1","parameterCategory":1,"la1":30.2991,"la2":30.254,"lo1":-89.0895,"lo2":-89.0444,"dy":0.0017,"dx":0.0017,"nx":28,"ny":28,"refTime":"2024-04-25T09:00:00:Z","depth":0,"parameterNumber":3,"parameterNumberName":"V-component_of_WINDS"},"data":[0,0,0,0,0,0,0,0,0,0,0,0,0,0,0,0,0,0,0,0,0,0,0,0,0,0,0,0,0,0,0,0,0,0,0,0,0,0,0,0,0,0,0,0,0,0,0,0,0,0,0,0,0,0,0,0,0,0,4.8642,4.8642,0,4.8698,4.8699,4.8699,4.862,4.8617,4.8614,4.8611,4.8668,4.8672,4.8676,0,0,0,0,0,0,0,0,0,0,0,0,0,4.8464,4.8468,4.8642,4.8642,4.8643,4.8698,4.8699,4.87,4.862,4.8617,4.8613,4.861,4.8666,4.8671,4.8676,0,0,0,0,0,0,0,0,0,0,0,0,0,4.8533,4.8469,4.8642,4.861,4.8608,4.8698,4.8699,4.87,4.8621,4.8617,4.8612,4.8608,4.8665,4.8671,4.8677,4.88,0,0,4.8696,4.8698,0,0,0,0,0,0,0,0,4.8529,4.854,4.8614,4.8612,4.861,4.8648,4.8657,4.8733,4.8622,4.8616,4.8611,4.8606,4.8664,4.867,4.869,4.8802,4.8805,4.8696,4.87,4.8703,4.8704,0,0,0,0,0,0,0,4.8525,4.8537,4.8664,4.8615,4.8613,4.8593,4.8598,4.8671,4.8663,4.8616,4.861,4.8618,4.8662,4.8684,4.8691,4.8806,4.8696,4.8702,4.8705,4.8708,4.9023,4.9027,0,0,0,0,0,0,4.8524,4.8533,4.8662,4.8666,4.8559,4.86,4.8605,4.864,4.8662,4.8661,4.8622,4.8614,4.8676,4.8684,4.8692,4.8838,4.8703,4.8708,4.8712,4.9018,4.9024,4.9029,0,0,0,0,0,0,4.852,4.8536,4.866,4.8598,4.8612,4.8607,4.8647,4.8643,4.8665,4.8667,4.8665,4.8646,4.8673,4.8684,4.8774,4.8839,4.8711,4.8717,4.9013,4.902,4.9026,4.9131,0,0,0,0,0,0,4.8516,4.8535,4.8582,4.86,4.8616,4.8741,4.8651,4.8647,4.8676,4.8667,4.8688,4.8688,4.867,4.8765,4.878,4.8845,4.8722,4.9007,4.9016,4.9024,4.9122,4.9141,4.9157,0,0,0,0,0,4.851,4.8609,4.8585,4.8601,4.8674,4.8745,4.8754,4.8732,4.8682,4.8729,4.873,4.8687,4.883,4.8775,4.8791,4.8859,4.9003,4.9013,4.9024,4.9114,4.9137,4.9157,0,0,0,0,0,0,4.8598,4.861,4.8584,4.8692,4.8718,4.8731,4.879,4.8757,4.8798,4.8787,4.8758,4.8764,4.8861,4.8869,4.8808,4.898,4.8908,4.8922,4.8971,4.8993,4.9011,4.9006,4.8727,0,0,0,0,0,4.863,4.8687,4.8694,4.8789,4.8804,4.8795,4.8825,4.8806,4.8831,4.8842,4.8849,4.8876,4.8926,4.896,4.9007,4.9123,4.9127,4.9178,4.9196,4.921,4.9223,4.9285,4.9308,4.9063,4.9063,4.9063,0,0,4.8697,4.8711,4.8748,4.8807,4.8825,4.8884,4.8804,4.887,4.8914,4.8851,4.8937,4.8944,4.8972,4.9076,4.9122,4.9086,4.9291,4.9224,4.9235,4.924,4.9299,4.9322,4.9342,4.907,4.9069,4.9068,0,0,4.8849,4.8865,4.8946,4.8966,4.8995,4.8988,4.9008,4.9027,4.9029,4.9115,4.907,4.9122,4.9209,4.9231,4.9253,4.9416,4.9378,4.9432,4.9524,4.9585,4.9605,4.9622,4.968,4.9701,4.9444,4.9445,4.9445,0,4.8928,4.9015,4.8991,4.9061,4.9088,4.9036,4.9118,4.9138,4.9181,4.9201,4.916,4.927,4.9285,4.9393,4.9433,4.9453,4.9475,4.9429,4.9604,4.9621,4.9636,4.9691,4.9713,4.9451,4.945,4.945,4.9449,0,4.9111,4.9173,4.9235,4.9278,4.9313,4.9388,4.9375,4.9413,4.9392,4.939,4.9479,4.9495,4.9545,4.9569,4.9549,4.9676,4.9653,4.9609,4.9535,4.9666,4.9718,4.9738,4.946,4.9458,4.9456,4.9454,0,0,4.9319,4.9349,4.9372,4.9392,4.9421,4.9468,4.9541,4.959,4.9624,4.9655,4.9716,4.9792,4.9752,4.9778,4.9759,4.9814,4.9942,4.9763,4.9763,4.9796,5.0083,5.0116,5.0141,4.9918,4.9922,4.9925,5.0081,0,4.9471,4.9598,4.9579,4.9701,4.9758,4.971,4.9774,4.9799,4.98,4.9848,4.9848,4.9903,4.9846,4.9861,4.9913,4.9915,4.9999,4.9904,4.9974,4.9977,4.9968,5.0168,5.0203,5.0349,5.0101,5.0104,5.0107,0,4.9664,4.9704,4.9833,4.9853,4.9877,4.9934,4.9979,5.0026,5.0053,5.0049,5.008,5.0052,5.0125,5.0051,5.0152,5.0088,5.0116,5.0122,5.0127,5.0132,5.0049,5.0178,5.0396,5.0418,5.0138,5.0136,5.0133,0,4.9803,4.9889,4.9977,4.9995,5.0021,5.0063,5.0076,5.0099,5.0131,5.0169,5.0189,5.0236,5.0262,5.0299,5.0284,5.0232,5.0389,5.0313,5.0388,5.0389,5.0422,5.042,5.0647,5.0441,5.0441,5.044,5.044,0,4.9974,5.0055,5.004,5.0094,5.0183,5.0161,5.025,5.0257,5.0278,5.0333,5.0294,5.0346,5.0324,5.0375,5.0365,5.045,5.0462,5.0462,5.0458,5.0465,5.0465,5.0482,5.0472,5.0446,5.0445,5.0444,5.0443,0,5.0144,5.0137,5.023,5.0248,5.0255,5.032,5.0335,5.0386,5.0384,5.0454,5.0469,5.0467,5.0525,5.0515,5.0579,5.0571,5.0679,5.0662,5.067,5.0666,5.0741,5.0734,5.0986,5.1019,5.0792,5.0794,5.0796,0,5.0253,5.0314,5.034,5.0374,5.039,5.0446,5.0478,5.0459,5.0494,5.0531,5.0577,5.0632,5.0675,5.077,5.0774,5.0823,5.0807,5.0893,5.0814,5.082,5.0809,5.0805,5.0812,5.0908,5.091,5.0912,5.0914,0,5.0449,5.0443,5.049,5.0538,5.0578,5.0614,5.0646,5.0677,5.0661,5.0702,5.0762,5.0795,5.0861,5.0916,5.0962,5.0975,5.0943,5.0939,5.0959,5.0967,5.0969,5.0969,5.0712,5.0933,5.0931,5.093,5.0929,5.0928,5.0591,5.0644,5.067,5.0725,5.0748,5.078,5.0829,5.0834,5.0883,5.0936,5.0922,5.0989,5.1016,5.1075,5.1093,5.1146,5.1114,5.1143,5.115,5.1158,5.1167,5.0961,5.1154,5.1154,5.1153,5.1153,5.1152,0,5.0785,5.08,5.0851,5.0898,5.0942,5.0908,5.0942,5.0981,5.1041,5.1069,5.1113,5.1181,5.1235,5.1244,5.1295,5.1336,5.1322,5.135,5.1346,5.135,5.1192,5.117,5.136,5.136,5.136,5.136,5.136,5.136,5.089,5.0977,5.0975,5.1073,5.1087,5.1154,5.1176,5.1206,5.1228,5.1307,5.1352,5.1357,5.1378,5.143,5.1478,5.1479,5.15,5.1534,5.1529,5.1382,5.1361,5.1341,5.132,5.1539,5.1539,5.1683,5.1684,5.1685]}]]